Location: Piotrkow Trybunalski
(51.4000°N, 19.6830°E)
Time: 08:33:55
(UTC+01:00)

BlueWalker 3 - Pass Details

Date: 05 December 2022
Orbit: 499 x 517 km, 53.2° (Epoch: 29 January)

Event Time Altitude Azimuth Distance (km) Brightness Sun altitude
Rises 16:01:14 0° 268° (W) 2,635 6.8 -4.3°
Reaches altitude 10° 16:03:27 10° 271° (W) 1,745 5.7 -4.6°
Maximum altitude 16:07:23 67° 354° (N) 559 2.1 -5.2°
Drops below altitude 10° 16:11:18 10° 78° (ENE) 1,733 4.1 -5.7°
Enters shadow 16:12:07 - 80° (E) 2,060 4.4 -5.8°
